EJA823 TIST-MYEF

Flight info

Callsign EJA823
Flight time 2h 20m
Altitude 43000
Route PALCO7 PALCO RTE6 SJU DCT ACONY Y308 FODED DCT WUNUT
Aircraft C700/M-SBDGHM1RWXY/LB2

Departure

Time 2026-05-04 23:10
Airport Cyril E. King Airport (TIST)

Arrival

Time 2026-05-05 01:30
Airport Exuma International Airport (MYEF)
Time Latitude Longitude Altitude Speed Heading
2026-05-04 23:01 18.33891 -64.96768 20 ft 0 kts 359°
2026-05-04 23:05 18.33912 -64.96770 22 ft 2 kts
2026-05-04 23:06 18.33914 -64.96741 21 ft 9 kts 92°
2026-05-04 23:06 18.33856 -64.96687 19 ft 16 kts 185°
2026-05-04 23:06 18.33836 -64.96778 19 ft 20 kts 266°
2026-05-04 23:06 18.33828 -64.96955 23 ft 26 kts 268°
2026-05-04 23:07 18.33820 -64.97154 21 ft 28 kts 267°
2026-05-04 23:07 18.33813 -64.97319 21 ft 17 kts 268°
2026-05-04 23:07 18.33798 -64.97409 23 ft 14 kts 227°
2026-05-04 23:07 18.33712 -64.97454 23 ft 15 kts 164°
2026-05-04 23:08 18.33631 -64.97437 22 ft 13 kts 263°
2026-05-04 23:08 18.33615 -64.97571 24 ft 24 kts 262°
2026-05-04 23:08 18.33602 -64.97774 22 ft 30 kts 267°
2026-05-04 23:08 18.33591 -64.98000 21 ft 32 kts 267°
2026-05-04 23:09 18.33583 -64.98210 24 ft 25 kts 266°
2026-05-04 23:09 18.33608 -64.98328 22 ft 16 kts 343°
2026-05-04 23:09 18.33692 -64.98305 21 ft 10 kts 65°
2026-05-04 23:09 18.33692 -64.98238 21 ft 13 kts 88°
2026-05-04 23:10 18.33701 -64.98015 22 ft 63 kts 87°
2026-05-04 23:10 18.33728 -64.97294 48 ft 130 kts 88°
2026-05-04 23:10 18.33795 -64.96206 535 ft 165 kts 90°
2026-05-04 23:10 18.33544 -64.94927 1232 ft 193 kts 123°
2026-05-04 23:11 18.32396 -64.94084 2084 ft 219 kts 163°
2026-05-04 23:11 18.30864 -64.94329 3324 ft 236 kts 205°
2026-05-04 23:11 18.29613 -64.95611 4430 ft 266 kts 232°
2026-05-04 23:11 18.28586 -64.97255 6014 ft 271 kts 234°
2026-05-04 23:12 18.27590 -64.98935 7484 ft 278 kts 236°
2026-05-04 23:12 18.26564 -65.00677 9000 ft 282 kts 236°
2026-05-04 23:12 18.25670 -65.02530 10383 ft 292 kts 251°
2026-05-04 23:12 18.25312 -65.04736 11251 ft 320 kts 266°
2026-05-04 23:13 18.25521 -65.07085 12625 ft 326 kts 281°
2026-05-04 23:13 18.26049 -65.09434 13931 ft 335 kts 283°
2026-05-04 23:13 18.26604 -65.11820 15222 ft 334 kts 283°
2026-05-04 23:13 18.27127 -65.14204 16555 ft 337 kts 283°
2026-05-04 23:14 18.27648 -65.16623 17791 ft 341 kts 283°
2026-05-04 23:14 18.28181 -65.19061 18949 ft 345 kts 283°
2026-05-04 23:14 18.28731 -65.21550 19844 ft 354 kts 283°
2026-05-04 23:14 18.29290 -65.24093 20821 ft 361 kts 282°
2026-05-04 23:15 18.29840 -65.26710 21627 ft 372 kts 281°
2026-05-04 23:15 18.30381 -65.29408 22440 ft 381 kts 281°
2026-05-04 23:15 18.30943 -65.32171 23273 ft 391 kts 281°
2026-05-04 23:15 18.31534 -65.34991 24033 ft 398 kts 281°
2026-05-04 23:16 18.32131 -65.37850 24834 ft 402 kts 281°
2026-05-04 23:16 18.32723 -65.40736 25635 ft 406 kts 281°
2026-05-04 23:16 18.33319 -65.43648 26464 ft 408 kts 282°
2026-05-04 23:16 18.33924 -65.46577 27268 ft 411 kts 282°
2026-05-04 23:17 18.34534 -65.49530 28077 ft 414 kts 283°
2026-05-04 23:17 18.35147 -65.52510 28805 ft 419 kts 283°
2026-05-04 23:17 18.35764 -65.55519 29571 ft 421 kts 283°
2026-05-04 23:17 18.36387 -65.58550 30221 ft 427 kts 283°
2026-05-04 23:18 18.37018 -65.61628 30805 ft 431 kts 283°
2026-05-04 23:18 18.37505 -65.64007 31384 ft 431 kts 283°
2026-05-04 23:50 18.37586 -65.64404 32757 ft 431 kts 282°
2026-05-04 23:51 18.38223 -65.67522 31826 ft 436 kts 282°
2026-05-04 23:51 18.38858 -65.70623 32699 ft 434 kts 282°
2026-05-04 23:51 18.39492 -65.73718 33096 ft 442 kts 282°
2026-05-04 23:51 18.40139 -65.76884 33690 ft 444 kts 282°
2026-05-04 23:52 18.40789 -65.80077 34167 ft 448 kts 282°
2026-05-04 23:52 18.41444 -65.83289 34651 ft 449 kts 282°
2026-05-04 23:52 18.42101 -65.86513 35144 ft 451 kts 282°
2026-05-04 23:52 18.42760 -65.89749 35647 ft 453 kts 282°
2026-05-04 23:53 18.43437 -65.92979 36345 ft 449 kts 284°
2026-05-04 23:53 18.44454 -65.96111 37156 ft 444 kts 292°
2026-05-04 23:53 18.45814 -65.98955 37896 ft 439 kts 300°
2026-05-04 23:53 18.47537 -66.01595 38587 ft 436 kts 308°
2026-05-04 23:54 18.49568 -66.03949 39117 ft 434 kts 315°
2026-05-04 23:54 18.51748 -66.06138 39506 ft 433 kts 315°
2026-05-04 23:54 18.53915 -66.08329 39898 ft 431 kts 315°
2026-05-04 23:54 18.56069 -66.10518 40289 ft 429 kts 315°
2026-05-04 23:55 18.58222 -66.12700 40603 ft 429 kts 315°
2026-05-04 23:55 18.60372 -66.14872 40911 ft 428 kts 315°
2026-05-04 23:55 18.64655 -66.19212 41472 ft 426 kts 315°
2026-05-04 23:56 18.66790 -66.21377 41739 ft 425 kts 315°
2026-05-04 23:56 18.68923 -66.23539 41983 ft 425 kts 315°
2026-05-04 23:56 18.71052 -66.25699 42209 ft 424 kts 314°
2026-05-04 23:56 18.73177 -66.27855 42426 ft 424 kts 314°
2026-05-04 23:57 18.75298 -66.30009 42631 ft 423 kts 314°
2026-05-04 23:57 18.77417 -66.32162 42820 ft 423 kts 314°
2026-05-04 23:57 18.79535 -66.34313 43001 ft 422 kts 314°
2026-05-04 23:58 18.83796 -66.38645 43021 ft 429 kts 314°
2026-05-04 23:58 18.88121 -66.43045 43035 ft 435 kts 314°
2026-05-04 23:59 18.92421 -66.47533 43044 ft 440 kts 309°
2026-05-04 23:59 18.96004 -66.52787 43050 ft 443 kts 303°
2026-05-05 00:00 18.99515 -66.58180 43047 ft 448 kts 303°
2026-05-05 00:00 19.02937 -66.63462 43029 ft 416 kts 303°
2026-05-05 00:00 19.04535 -66.65928 43029 ft 398 kts 303°
2026-05-05 00:01 19.06082 -66.68316 43028 ft 393 kts 303°
2026-05-05 00:01 19.09201 -66.73139 43044 ft 402 kts 303°
2026-05-05 00:02 19.12396 -66.78076 43050 ft 411 kts 303°
2026-05-05 00:02 19.15656 -66.83121 43055 ft 420 kts 303°
2026-05-05 00:03 19.18982 -66.88272 43056 ft 428 kts 303°
2026-05-05 00:03 19.22364 -66.93515 43060 ft 433 kts 302°
2026-05-05 00:04 19.25754 -66.98772 43055 ft 431 kts 302°
2026-05-05 00:04 19.29112 -67.03987 43057 ft 427 kts 302°
2026-05-05 00:05 19.32443 -67.09162 43053 ft 424 kts 302°
2026-05-05 00:05 19.35772 -67.14340 43054 ft 426 kts 302°
2026-05-05 00:06 19.39117 -67.19548 43058 ft 429 kts 302°
2026-05-05 00:06 19.42477 -67.24781 43065 ft 431 kts 302°
2026-05-05 00:07 19.45828 -67.30007 43064 ft 431 kts 302°
2026-05-05 00:07 19.49214 -67.35291 43063 ft 430 kts 302°
2026-05-05 00:08 19.52540 -67.40486 43057 ft 428 kts 302°
2026-05-05 00:08 19.55875 -67.45699 43055 ft 427 kts 302°
2026-05-05 00:09 19.59159 -67.50836 43049 ft 410 kts 302°
2026-05-05 00:09 19.62349 -67.55834 43050 ft 412 kts 302°
2026-05-05 00:10 19.65595 -67.60918 43061 ft 420 kts 302°
2026-05-05 00:10 19.68893 -67.66097 43059 ft 428 kts 302°
2026-05-05 00:11 19.72251 -67.71364 43066 ft 433 kts 302°
2026-05-05 00:11 19.75620 -67.76660 43064 ft 431 kts 302°
2026-05-05 00:12 19.78963 -67.81916 43056 ft 428 kts 302°
2026-05-05 00:12 19.82282 -67.87139 43052 ft 426 kts 302°
2026-05-05 00:13 19.85595 -67.92362 43050 ft 427 kts 302°
2026-05-05 00:13 19.88926 -67.97613 43053 ft 429 kts 302°
2026-05-05 00:14 19.92248 -68.02856 43056 ft 431 kts 302°
2026-05-05 00:14 19.95600 -68.08152 43058 ft 432 kts 302°
2026-05-05 00:15 19.98950 -68.13448 43062 ft 430 kts 302°
2026-05-05 00:15 20.02282 -68.18721 43061 ft 429 kts 302°
2026-05-05 00:16 20.05600 -68.23977 43057 ft 427 kts 302°
2026-05-05 00:16 20.08906 -68.29218 43056 ft 426 kts 302°
2026-05-05 00:17 20.12200 -68.34445 43054 ft 426 kts 301°
2026-05-05 00:17 20.15505 -68.39693 43057 ft 427 kts 301°
2026-05-05 00:18 20.18819 -68.44960 43059 ft 429 kts 301°
2026-05-05 00:18 20.22144 -68.50252 43058 ft 431 kts 301°
2026-05-05 00:19 20.25468 -68.55571 43054 ft 430 kts 300°
2026-05-05 00:19 20.28456 -68.61058 43050 ft 427 kts 298°
2026-05-05 00:20 20.31446 -68.66513 43047 ft 425 kts 298°
2026-05-05 00:20 20.34402 -68.71948 43044 ft 423 kts 298°
2026-05-05 00:21 20.37365 -68.77386 43045 ft 425 kts 298°
2026-05-05 00:21 20.40338 -68.82851 43048 ft 427 kts 298°
2026-05-05 00:22 20.43323 -68.88343 43046 ft 429 kts 298°
2026-05-05 00:22 20.46287 -68.93801 43053 ft 428 kts 297°
2026-05-05 00:23 20.49259 -68.99278 43056 ft 424 kts 297°
2026-05-05 00:23 20.52196 -69.04698 43048 ft 420 kts 297°
2026-05-05 00:24 20.55121 -69.10101 43046 ft 422 kts 297°
2026-05-05 00:24 20.58064 -69.15542 43044 ft 424 kts 297°
2026-05-05 00:25 20.61021 -69.21013 43058 ft 427 kts 297°
2026-05-05 00:25 20.63988 -69.26509 43050 ft 427 kts 297°
2026-05-05 00:26 20.66942 -69.31986 43048 ft 424 kts 297°
2026-05-05 00:26 20.69882 -69.37443 43046 ft 423 kts 297°
2026-05-05 00:27 20.72806 -69.42875 43043 ft 421 kts 297°
2026-05-05 00:27 20.75720 -69.48295 43045 ft 421 kts 297°
2026-05-05 00:28 20.78623 -69.53697 43042 ft 423 kts 297°
2026-05-05 00:28 20.81557 -69.59164 43052 ft 425 kts 297°
2026-05-05 00:29 20.84504 -69.64660 43055 ft 427 kts 297°
2026-05-05 00:29 20.87457 -69.70173 43047 ft 427 kts 297°
2026-05-05 00:30 20.90400 -69.75671 43039 ft 424 kts 297°
2026-05-05 00:30 20.93313 -69.81121 43028 ft 420 kts 297°
2026-05-05 00:31 20.96210 -69.86545 43039 ft 421 kts 296°
2026-05-05 00:31 20.99112 -69.91985 43044 ft 421 kts 296°
2026-05-05 00:32 21.02019 -69.97439 43039 ft 422 kts 296°
2026-05-05 00:32 21.04926 -70.02899 43039 ft 423 kts 296°
2026-05-05 00:33 21.07816 -70.08333 43040 ft 423 kts 296°
2026-05-05 00:33 21.10723 -70.13802 43039 ft 423 kts 296°
2026-05-05 00:34 21.13630 -70.19278 43046 ft 423 kts 296°
2026-05-05 00:34 21.16059 -70.23856 43041 ft 421 kts 296°
2026-05-05 00:35 21.18934 -70.29282 43037 ft 417 kts 296°
2026-05-05 00:35 21.21768 -70.34637 43030 ft 415 kts 296°
2026-05-05 00:36 21.24625 -70.40039 43032 ft 418 kts 296°
2026-05-05 00:36 21.27495 -70.45470 43036 ft 420 kts 296°
2026-05-05 00:37 21.30376 -70.50928 43042 ft 420 kts 296°
2026-05-05 00:37 21.33246 -70.56370 43039 ft 418 kts 296°
2026-05-05 00:38 21.36096 -70.61782 43031 ft 416 kts 296°
2026-05-05 00:38 21.38931 -70.67168 43028 ft 414 kts 296°
2026-05-05 00:39 21.41762 -70.72556 43028 ft 415 kts 296°
2026-05-05 00:39 21.44608 -70.77973 43034 ft 418 kts 296°
2026-05-05 00:40 21.47464 -70.83418 43038 ft 420 kts 296°
2026-05-05 00:40 21.50329 -70.88884 43046 ft 420 kts 296°
2026-05-05 00:41 21.53183 -70.94333 43035 ft 417 kts 296°
2026-05-05 00:41 21.56019 -70.99755 43032 ft 415 kts 295°
2026-05-05 00:42 21.58788 -71.05178 43028 ft 413 kts 294°
2026-05-05 00:42 21.61448 -71.10656 43031 ft 414 kts 294°
2026-05-05 00:43 21.64132 -71.16154 43033 ft 416 kts 294°
2026-05-05 00:43 21.66819 -71.21683 43036 ft 418 kts 294°
2026-05-05 00:44 21.69498 -71.27192 43042 ft 419 kts 294°
2026-05-05 00:44 21.72181 -71.32716 43036 ft 414 kts 294°
2026-05-05 00:45 21.74826 -71.38171 43027 ft 410 kts 294°
2026-05-05 00:45 21.77465 -71.43620 43027 ft 412 kts 294°
2026-05-05 00:46 21.80122 -71.49108 43031 ft 415 kts 294°
2026-05-05 00:46 21.82794 -71.54635 43034 ft 417 kts 294°
2026-05-05 00:47 21.85462 -71.60157 43037 ft 414 kts 294°
2026-05-05 00:47 21.88099 -71.65622 43031 ft 409 kts 294°
2026-05-05 00:48 21.90718 -71.71059 43026 ft 410 kts 294°
2026-05-05 00:48 21.93348 -71.76521 43029 ft 412 kts 294°
2026-05-05 00:49 21.95993 -71.82021 43030 ft 415 kts 294°
2026-05-05 00:49 21.98648 -71.87547 43032 ft 415 kts 294°
2026-05-05 00:50 22.01295 -71.93062 43032 ft 413 kts 294°
2026-05-05 00:50 22.03926 -71.98549 43030 ft 410 kts 293°
2026-05-05 00:51 22.06535 -72.03999 43025 ft 408 kts 293°
2026-05-05 00:51 22.09139 -72.09442 43025 ft 409 kts 293°
2026-05-05 00:52 22.11753 -72.14912 43034 ft 411 kts 293°
2026-05-05 00:52 22.14369 -72.20392 43035 ft 411 kts 293°
2026-05-05 00:53 22.16982 -72.25872 43046 ft 411 kts 293°
2026-05-05 00:53 22.19590 -72.31347 43029 ft 409 kts 293°
2026-05-05 00:54 22.22048 -72.36500 43020 ft 406 kts 293°
2026-05-05 00:54 22.24616 -72.41919 43017 ft 405 kts 293°
2026-05-05 00:55 22.27192 -72.47338 43021 ft 407 kts 293°
2026-05-05 00:55 22.29761 -72.52756 43024 ft 409 kts 293°
2026-05-05 00:56 22.32359 -72.58240 43028 ft 411 kts 293°
2026-05-05 00:56 22.34964 -72.63741 43030 ft 410 kts 293°
2026-05-05 00:57 22.37548 -72.69206 43028 ft 407 kts 293°
2026-05-05 00:57 22.40108 -72.74627 43024 ft 404 kts 293°
2026-05-05 00:58 22.42663 -72.80045 43021 ft 406 kts 292°
2026-05-05 00:58 22.45232 -72.85495 43025 ft 408 kts 292°
2026-05-05 00:59 22.47812 -72.90976 43029 ft 410 kts 293°
2026-05-05 00:59 22.50400 -72.96481 43029 ft 411 kts 292°
2026-05-05 01:00 22.52976 -73.01971 43030 ft 407 kts 292°
2026-05-05 01:00 22.55526 -73.07410 43024 ft 404 kts 292°
2026-05-05 01:01 22.58063 -73.12830 43013 ft 404 kts 292°
2026-05-05 01:01 22.60613 -73.18281 43020 ft 407 kts 292°
2026-05-05 01:02 22.63176 -73.23769 43027 ft 410 kts 292°
2026-05-05 01:02 22.65749 -73.29278 43016 ft 410 kts 292°
2026-05-05 01:03 22.68294 -73.34739 43022 ft 408 kts 292°
2026-05-05 01:03 22.70842 -73.40210 43028 ft 406 kts 292°
2026-05-05 01:04 22.73378 -73.45662 43025 ft 404 kts 292°
2026-05-05 01:04 22.77177 -73.53841 43024 ft 407 kts 292°
2026-05-05 01:05 22.79721 -73.59325 43026 ft 408 kts 292°
2026-05-05 01:05 22.82276 -73.64838 43035 ft 410 kts 292°
2026-05-05 01:06 22.84836 -73.70370 43028 ft 410 kts 292°
2026-05-05 01:06 22.87391 -73.75895 43027 ft 409 kts 292°
2026-05-05 01:07 22.89931 -73.81395 43022 ft 407 kts 292°
2026-05-05 01:07 22.92463 -73.86881 43020 ft 407 kts 291°
2026-05-05 01:08 22.94986 -73.92360 43019 ft 405 kts 291°
2026-05-05 01:08 22.97502 -73.97827 43020 ft 405 kts 291°
2026-05-05 01:09 23.00029 -74.03323 43027 ft 407 kts 291°
2026-05-05 01:09 23.02560 -74.08835 43030 ft 409 kts 291°
2026-05-05 01:10 23.05097 -74.14363 43027 ft 409 kts 291°
2026-05-05 01:10 23.07628 -74.19887 43029 ft 408 kts 291°
2026-05-05 01:11 23.10152 -74.25403 43026 ft 408 kts 291°
2026-05-05 01:11 23.12673 -74.30917 43023 ft 407 kts 291°
2026-05-05 01:12 23.15188 -74.36425 43033 ft 406 kts 291°
2026-05-05 01:12 23.17681 -74.41890 43020 ft 406 kts 291°
2026-05-05 01:13 23.20182 -74.47379 43018 ft 405 kts 291°
2026-05-05 01:13 23.22675 -74.52857 43023 ft 404 kts 291°
2026-05-05 01:14 23.25161 -74.58326 43026 ft 403 kts 291°
2026-05-05 01:14 23.27640 -74.63786 43014 ft 403 kts 291°
2026-05-05 01:15 23.30122 -74.69259 43020 ft 404 kts 291°
2026-05-05 01:15 23.32614 -74.74758 43027 ft 406 kts 291°
2026-05-05 01:16 23.33847 -74.77476 42508 ft 397 kts 291°
2026-05-05 01:16 23.35076 -74.80199 41198 ft 404 kts 291°
2026-05-05 01:16 23.36318 -74.82956 40081 ft 407 kts 291°
2026-05-05 01:16 23.37510 -74.85746 38950 ft 407 kts 287°
2026-05-05 01:17 23.38422 -74.88658 37599 ft 406 kts 282°
2026-05-05 01:17 23.39048 -74.91669 36035 ft 411 kts 276°
2026-05-05 01:17 23.39378 -74.94780 34433 ft 417 kts 271°
2026-05-05 01:17 23.39431 -74.97961 32603 ft 424 kts 268°
2026-05-05 01:18 23.39440 -75.01201 30715 ft 432 kts 270°
2026-05-05 01:18 23.39468 -75.04505 28516 ft 440 kts 270°
2026-05-05 01:18 23.39500 -75.07862 26147 ft 448 kts 270°
2026-05-05 01:18 23.39519 -75.11276 23706 ft 455 kts 270°
2026-05-05 01:19 23.39533 -75.14685 20783 ft 447 kts 270°
2026-05-05 01:19 23.39552 -75.17826 17167 ft 368 kts 270°
2026-05-05 01:19 23.39570 -75.20517 12674 ft 343 kts 270°
2026-05-05 01:19 23.39583 -75.23030 10076 ft 306 kts 269°
2026-05-05 01:20 23.39594 -75.25280 10015 ft 296 kts 269°
2026-05-05 01:20 23.39604 -75.27511 10022 ft 297 kts 269°
2026-05-05 01:20 23.39615 -75.29853 10034 ft 323 kts 269°
2026-05-05 01:20 23.39627 -75.32374 10052 ft 339 kts 269°
2026-05-05 01:21 23.39640 -75.34956 10059 ft 341 kts 269°
2026-05-05 01:21 23.39652 -75.37512 10058 ft 332 kts 269°
2026-05-05 01:21 23.39663 -75.39957 9948 ft 316 kts 269°
2026-05-05 01:21 23.39672 -75.42294 9566 ft 301 kts 269°
2026-05-05 01:22 23.39678 -75.43777 9309 ft 292 kts 269°
2026-05-05 01:22 23.39686 -75.45940 8934 ft 280 kts 269°
2026-05-05 01:22 23.39694 -75.48027 8572 ft 272 kts 269°
2026-05-05 01:22 23.39701 -75.50074 8216 ft 269 kts 269°
2026-05-05 01:23 23.39708 -75.52120 7863 ft 272 kts 269°
2026-05-05 01:23 23.39717 -75.54859 7387 ft 274 kts 269°
2026-05-05 01:23 23.39722 -75.56262 7143 ft 275 kts 269°
2026-05-05 01:23 23.39728 -75.58317 6783 ft 268 kts 269°
2026-05-05 01:24 23.39735 -75.60320 6431 ft 261 kts 269°
2026-05-05 01:24 23.39740 -75.62271 6077 ft 255 kts 269°
2026-05-05 01:24 23.39745 -75.64175 5740 ft 249 kts 269°
2026-05-05 01:24 23.39750 -75.66015 5419 ft 244 kts 269°
2026-05-05 01:25 23.39770 -75.67845 5101 ft 240 kts 273°
2026-05-05 01:25 23.40177 -75.69594 4785 ft 239 kts 293°
2026-05-05 01:25 23.41116 -75.71065 4491 ft 237 kts 313°
2026-05-05 01:25 23.42461 -75.72078 4234 ft 235 kts 333°
2026-05-05 01:26 23.44034 -75.72505 4009 ft 233 kts 355°
2026-05-05 01:26 23.45605 -75.72371 3993 ft 221 kts
2026-05-05 01:26 23.47055 -75.71914 3985 ft 213 kts
2026-05-05 01:26 23.48526 -75.71899 3825 ft 214 kts 347°
2026-05-05 01:27 23.49901 -75.72505 3532 ft 212 kts 324°
2026-05-05 01:27 23.50934 -75.73614 3146 ft 208 kts 302°
2026-05-05 01:27 23.51496 -75.75019 2446 ft 203 kts 281°
2026-05-05 01:27 23.51612 -75.76558 1925 ft 203 kts 272°
2026-05-05 01:28 23.51761 -75.78059 1716 ft 197 kts 281°
2026-05-05 01:28 23.52201 -75.79430 1526 ft 181 kts 295°
2026-05-05 01:28 23.52755 -75.80557 1252 ft 157 kts 298°
2026-05-05 01:28 23.53222 -75.81493 1069 ft 129 kts 298°
2026-05-05 01:29 23.53637 -75.82335 916 ft 129 kts 298°
2026-05-05 01:29 23.54072 -75.83226 771 ft 136 kts 298°
2026-05-05 01:29 23.54507 -75.84142 591 ft 135 kts 297°
2026-05-05 01:29 23.54947 -75.85050 407 ft 136 kts 298°
2026-05-05 01:30 23.55370 -75.85957 235 ft 133 kts 297°
2026-05-05 01:30 23.55805 -75.86861 54 ft 135 kts 297°
2026-05-05 01:30 23.56198 -75.87665 14 ft 94 kts 298°
2026-05-05 01:30 23.56408 -75.88088 10 ft 28 kts 302°
2026-05-05 01:31 23.56436 -75.88144 10 ft 2 kts 165°
2026-05-05 01:31 23.56400 -75.88079 10 ft 18 kts 117°
2026-05-05 01:31 23.56320 -75.87911 12 ft 31 kts 118°
2026-05-05 01:31 23.56214 -75.87691 13 ft 34 kts 117°
2026-05-05 01:32 23.56126 -75.87497 13 ft 14 kts 96°
2026-05-05 01:32 23.56191 -75.87449 13 ft 13 kts 19°
2026-05-05 01:32 23.56288 -75.87398 12 ft 17 kts 24°
2026-05-05 01:32 23.56371 -75.87395 12 ft 8 kts 270°
2026-05-05 01:33 23.56386 -75.87441 12 ft 3 kts 18°
2026-05-05 01:33 23.56393 -75.87436 12 ft 0 kts 32°